Flag for U.S.A. Weather past 2 weeks in Aurora, Colorado, U.S.A.

Now
71 °F

Scattered clouds.


Feels Like: 76 °F
Forecast: 61 / 79 °F
Wind: 2 mph from North

Location: Buckley Air Force Base

Current Time: Jul 2, 2015 at 12:32:31 PM

Latest Report: Jul 2, 2015 at 11:58 AM


Visibility: 10 mi

Pressure: 30.04 "Hg

Humidity: 57%

Dew point: 55 °F

Location of AuroraLocation

Historic Weather in Aurora — Graph

°F

Aurora temperature yesterday

Maximum temperature yesterday: 87 °F (at 1:58 PM)
Minimum temperature yesterday: 62 °F (at 5:58 AM)
Average temperature yesterday: 72 °F

Past Weeks' High & Low Weather Summary

 TemperatureHumidityPressure
High91 °F (Jun 19, 12:58 PM)100% (Jun 26, 3:58 AM)30.19 "Hg (Jun 26, 3:58 AM)
Low56 °F (Jul 2, 7:58 AM)17% (Jun 19, 11:58 AM)29.68 "Hg (Jun 21, 7:58 PM)
Average71 °F57%29.95 "Hg
* Reported Jun 17 10:58 AM — Jul 2 10:58 AM, Aurora, Weather by CustomWeather, © 2015

Note: Actual official high and low records may vary slightly from our data, if they occured in-between our weather recording intervals... More about our weather records

Advertising

Aurora weather history for previous 24 hours

 ConditionsComfort  
Time TempWeatherWind HumidityBarometerVisibility
10:58 AM
Thu, Jul 2
68 °FScattered clouds.9 mph63%30.06 "Hg10 mi
9:58 AM64 °FPartly sunny.12 mph70%30.09 "Hg10 mi
8:58 AM58 °FCloudy.8 mph82%30.15 "Hg10 mi
7:58 AM56 °FMostly cloudy.6 mph94%30.15 "Hg10 mi
6:58 AM56 °FPartly sunny.14 mph90%30.11 "Hg10 mi
5:58 AM58 °FPassing clouds.16 mph99%30.06 "Hg10 mi
4:58 AM60 °FPassing clouds.6 mph86%29.95 "Hg10 mi
3:58 AM61 °FPassing clouds.6 mph80%29.88 "Hg10 mi
2:58 AM64 °FPassing clouds.7 mph76%29.87 "Hg10 mi
1:58 AM64 °FPassing clouds.13 mph72%29.85 "Hg10 mi
12:58 AM65 °FPartly cloudy.15 mph67%29.88 "Hg10 mi
11:58 PM
Wed, Jul 1
62 °FPassing clouds.7 mph81%29.95 "Hg10 mi
10:58 PM64 °FPartly cloudy.8 mph73%29.96 "Hg10 mi
9:58 PM63 °FPartly cloudy.7 mph72%29.98 "Hg10 mi
8:58 PM66 °FBroken clouds.8 mph70%29.98 "Hg10 mi
7:58 PM69 °FBroken clouds.8 mph67%29.99 "Hg10 mi
6:58 PM71 °FBroken clouds.13 mph68%30.00 "Hg10 mi
5:58 PM74 °FBroken clouds.10 mph62%29.99 "Hg10 mi
4:58 PM74 °FThundershowers. Mostly cloudy.9 mph61%29.98 "Hg10 mi
3:58 PM84 °FThundershowers. Partly sunny.6 mph37%29.92 "Hg10 mi
2:58 PM83 °FScattered showers. Partly sunny.2 mph33%29.92 "Hg10 mi
1:58 PM87 °FPartly sunny.8 mph32%29.91 "Hg10 mi
12:58 PM86 °FPassing clouds.7 mph31%29.93 "Hg10 mi
Weather by CustomWeather, © 2015

See weather overviewHow to use our weather pages